Tracking 19484 objects as of 20-Jan-2019
HD Live streaming from Space Station
objects crossing your sky now

ADEOS 2

Track ADEOS 2 now!
10-day predictions
ADEOS 2 is classified as:


NORAD ID: 27597
Int'l Code: 2002-056A
Perigee: 806.1 km
Apogee: 809.1 km
Inclination: 98.5 °
Period: 100.9 minutes
Semi major axis: 7178 km
RCS: 19.0027 m2 (large)
Launch date: December 14, 2002
Source: Japan (JPN)
Launch site: TANEGASHIMA SPACE CENTER (TNSTA)
aabbcc
Your satellite tracking list
Your tracking list is empty




NASA's NSSDC Master Catalog

Two Line Element Set (TLE):
1 27597U 02056A   19020.44734567 -.00000007  00000-0  14325-4 0  9992
2 27597  98.4529 337.9687 0002089  72.6451 287.4958 14.27381635838480
Source of the keplerian elements: AFSPC